{"data":{"norad_id":63184,"intl_designator":"2025-048B","name":"STARLINK-11617 [DTC]","alt_names":[],"object_type":"PAYLOAD","status":"ACTIVE","operator":null,"country":"US","launch_date":"2025-03-13","launch_site_code":"AFETR","launch_vehicle":null,"mission":null,"orbit_class":"UNKNOWN","rcs_meters":null,"size_class":null,"mass_kg":null,"dimensions":null,"purposes":["comms"],"wikipedia_slug":null,"has_3d_model":false,"image_url":null,"decayed_at":null,"tle_current":{"epoch":"2026-05-24T13:50:59.457120Z","epoch_age_seconds":108829,"freshness":"FRESH","line1":"1 63184U 25048B   26144.57707705  .00158746  00000+0  12132-2 0  9997","line2":"2 63184  42.9998 222.7121 0002835 264.0987  95.9558 15.70915131 70456","mean_motion":15.70915131,"eccentricity":0.0002835,"inclination_deg":42.9998,"raan_deg":222.7121,"arg_perigee_deg":264.0987,"mean_anomaly_deg":95.9558,"bstar":0.0012132,"rev_number":7045,"period_min":91.666314212871,"perigee_km":354.37112435452,"apogee_km":358.18953898158,"semimajor_km":6734.4173316681,"source":"CELESTRAK","updated_at":"2026-05-25T13:38:19.918847Z"}}}